Home   Weather   Bayreuth   Past weeks

Flag for Germany Past Weather in Bayreuth, Bavaria, Germany — Yesterday and Last 2 Weeks

Now
66 °F

Scattered clouds.


Feels Like: 66 °F
Forecast: 50 / 67 °F
Wind: 6 mph from South

Location: Grafenwoehr

Current Time: Sep 30, 2016 at 12:03:50 PM

Latest Report: Sep 30, 2016 at 10:58 AM


Visibility: N/A

Pressure: 30.00 "Hg

Humidity: 56%

Dew Point: 50 °F

Location of BayreuthLocation

Past Weather in Bayreuth — Graph

°F

Bayreuth Temperature Yesterday

Maximum temperature yesterday: 73 °F (at 2:58 PM)
Minimum temperature yesterday: 45 °F (at 6:58 AM)
Average temperature yesterday: 57 °F

High & Low Weather Summary for the Past Weeks

 TemperatureHumidityPressure
High84 °F (Sep 15, 1:58 PM)100% (Sep 17, 7:58 AM)30.38 "Hg (Sep 17, 7:58 AM)
Low36 °F (Sep 21, 7:58 AM)27% (Sep 15, 4:58 PM)29.81 "Hg (Sep 17, 4:58 PM)
Average55 °F83%30.10 "Hg
* Reported Sep 15 10:58 AM — Sep 30 10:58 AM, Bayreuth, Weather by CustomWeather, © 2016

Note: Actual official high and low records may vary slightly from our data, if they occured in-between our weather recording intervals... More about our weather records

Advertising

Bayreuth Weather History for the Previous 24 Hours

Scroll right to see more
 ConditionsComfort  
Time TempWeatherWind HumidityBarometerVisibility
10:58 AM
Fri, Sep 30
66 °FScattered clouds.6 mph56%30.00 "HgN/A
9:58 AM59 °FOvercast.No wind82%30.01 "HgN/A
8:58 AM54 °FCool.N/A94%30.01 "HgN/A
7:58 AM48 °FOvercast.No wind100%30.01 "HgN/A
6:58 AM48 °FPassing clouds.No wind94%29.99 "HgN/A
5:58 AM48 °FPassing clouds.No wind94%29.98 "HgN/A
4:58 AM48 °FPassing clouds.No wind100%29.98 "HgN/A
3:58 AM48 °FClear.No wind100%29.99 "HgN/A
2:58 AM50 °FClear.No wind94%30.00 "HgN/A
1:58 AM52 °FPassing clouds.No wind94%30.01 "HgN/A
12:58 AM52 °FClear.No wind94%30.01 "HgN/A
11:58 PM
Thu, Sep 29
52 °FClear.No wind94%30.01 "HgN/A
10:58 PM52 °FClear.No wind94%30.02 "HgN/A
9:58 PM55 °FClear.No wind82%30.03 "HgN/A
8:58 PM57 °FClear.No wind82%30.05 "HgN/A
7:58 PM61 °FClear.2 mph72%30.05 "HgN/A
6:58 PM68 °FClear.2 mph56%30.03 "HgN/A
5:58 PM72 °FSunny.6 mph47%30.04 "HgN/A
4:58 PM73 °FSunny.8 mph44%30.05 "HgN/A
3:58 PM73 °FSunny.9 mph44%30.06 "HgN/A
2:58 PM73 °FSunny.12 mph44%30.09 "HgN/A
1:58 PM72 °FSunny.6 mph47%30.11 "HgN/A
12:58 PM72 °FSunny.7 mph47%30.16 "HgN/A
Weather by CustomWeather, © 2016

See weather overviewHow to use our weather pages